Regional Weather Roundup
Issued by NWS

Home | Current Version | Previous Version | Graphics & Text | Print | Product List | Glossary On
Versions: 1 2 3 4 5 6 7 8 9 10 11 12 13 14 15 16 17 18 19 20 21 22 23 24 25 26 27 28 29 30 31 32 33 34 35 36 37 38 39 40 41 42 43 44 45 46 47 48 49 50
000
ASUS45 KSLC 222210
RWRUT

UTAH REGIONAL WEATHER ROUNDUP
NATIONAL WEATHER SERVICE SALT LAKE CITY UT
300 PM MST MON DEC 22 2014

UTZ001>011-023>025-222300-

NORTHERN UTAH

CITY           SKY/WX    TMP DP  RH WIND       PRES   REMARKS
BRIGHAM CITY   MOSUNNY   44  31  60 NW17G24   29.99S
HILL AFB       LGT RAIN  41  32  72 N12       29.98S
LOGAN          MIX PCPN  36  33  89 NW14      30.00R WCI  27
OGDEN          LGT RAIN  42  34  73 NW18      29.98S
PROVO AIRPORT  MOSUNNY   43  36  75 W8        29.99S
SALT LAKE CITY PTSUNNY   45  31  58 NW25      29.98S
VERNAL         PTSUNNY   42  23  46 NW18      29.84R
WENDOVER       MOSUNNY   52  28  40 N20G25    30.05R
HEBER CITY     PTSUNNY   37  27  65 NW10      29.92S WCI  30
WEST JORDAN    MOSUNNY   43  36  75 NW21G32   30.00R

$$

UTZ012>022-026-027-222300-

SOUTHERN/CENTRAL UTAH

CITY           SKY/WX    TMP DP  RH WIND       PRES   REMARKS
BLANDING       CLOUDY    45  34  66 NW23G31   29.89S
BRYCE CANYON   LGT SNOW  33  31  92 N6        30.02R VSB 3/4 WCI  28
CEDAR CITY     CLOUDY    51  35  54 N20G29    29.99R
DELTA          PTSUNNY   44  37  76 N23G29    30.02S
MILFORD        CLOUDY    45  40  82 N9        30.03S
MOAB/CYNLANDS  SUNNY     53  25  33 NW32G40   29.77F
PRICE          MOSUNNY   44  22  41 NW23G37   29.84F
ST GEORGE      MOCLDY    63  37  39 W6        29.94F
KANAB            N/A     57  34  41 SW12      29.99S

$$

REGIONAL REPORTS     COLORADO/ARIZONA

CITY           SKY/WX    TMP DP  RH WIND       PRES   REMARKS
CRAIG, CO      MIX PCPN  30  23  75 N14       29.81R WCI  19
GRAND JUNCTION CLOUDY    38  32  79 N10       29.78S WCI  31
RIFLE          PTSUNNY   38  24  57 W17       29.77F WCI  28
MONTROSE       MIX PCPN  33  32  96 W13       29.80S WCI  24
CORTEZ         PTSUNNY   45  38  76 W16G22    29.78F
PAGE, AZ       CLOUDY    63  33  32 NW10G23   29.85S
GRAND CANYON   SUNNY     51  33  50 NW12G25   30.00S
KINGMAN        SUNNY     66  36  32 N9        30.00S
FLAGSTAFF      SUNNY     53  30  41 NW10G25   30.00S

$$

REGIONAL REPORTS    NEVADA/IDAHO/WYOMING

CITY           SKY/WX    TMP DP  RH WIND       PRES   REMARKS
LAS VEGAS, NV  MOSUNNY   74  36  25 CALM      29.93F
ELY            CLOUDY    45  34  65 N17G32    30.12S
ELKO           MOSUNNY   47  34  60 W29G37    30.14F
POCATELLO, ID  LGTSLEET  37  32  82 NW12      30.01R WCI  29
BURLEY         LGT RAIN  41  32  70 W30G41    30.03S
EVANSTON, WY   PTSUNNY   30  25  81 NW15      29.91S WCI  19
ROCK SPRINGS   MOSUNNY   30  16  56 NW22G30   29.82R WCI  17
KEMMERER       SNOW      28  23  80 W31G38    29.89R VSB 1/2 WCI  12

$$



USA.gov is the U.S. government's official web portal to all federal, state and local government web resources and services.